This is the latest recevied weather packets stored in our database for station/object N5ATR. If no packets are shown the sender has not sent any weather packets the latest 10 day(s).
| Time | Temp. | Humidity | Pressure | Rain* | Wind** | Luminosity | Snow |
|---|---|---|---|---|---|---|---|
| 1787956533 | 29.44° C | 28% | 1024.4 hPa | 0 mm | - | 329 W/m² | - |
| 1787956228 | 29.44° C | 28% | 1024.2 hPa | 0 mm | - | 331 W/m² | - |
| 1787955928 | 29.44° C | 28% | 1024.6 hPa | 0 mm | - | 169 W/m² | - |
| 1787955624 | 28.89° C | 29% | 1024.4 hPa | 0 mm | - | 143 W/m² | - |
| 1787955320 | 29.44° C | 31% | 1024.6 hPa | 0 mm | - | 166 W/m² | - |
| 1787955018 | 30° C | 28% | 1024.7 hPa | 0 mm | - | 294 W/m² | - |
| 1787954714 | 29.44° C | 28% | 1024.5 hPa | 0 mm | - | 170 W/m² | - |
| 1787954417 | 30.56° C | 29% | 1024.4 hPa | 0 mm | - | 163 W/m² | - |
| 1787954104 | 31.67° C | 27% | 1024.7 hPa | 0 mm | - | 248 W/m² | - |
| 1787953803 | 32.78° C | 25% | 1024.6 hPa | 0 mm | - | 626 W/m² | - |
| 1787953498 | 33.33° C | 24% | 1024.7 hPa | 0 mm | - | 640 W/m² | - |
| 1787953197 | 32.78° C | 24% | 1025 hPa | 0 mm | - | 642 W/m² | - |
| 1787952895 | 32.78° C | 24% | 1024.5 hPa | 0 mm | - | 630 W/m² | - |
| 1787952590 | 32.78° C | 25% | 1024.7 hPa | 0 mm | - | 659 W/m² | - |
| 1787952289 | 33.33° C | 25% | 1025 hPa | 0 mm | - | 661 W/m² | - |
| 1787951986 | 32.22° C | 25% | 1024.9 hPa | 0 mm | - | 672 W/m² | - |
| 1787951686 | 32.78° C | 25% | 1025.1 hPa | 0 mm | - | 662 W/m² | - |
| 1787951382 | 32.22° C | 25% | 1025 hPa | 0 mm | - | 691 W/m² | - |
| 1787951078 | 32.78° C | 25% | 1025.2 hPa | 0 mm | - | 710 W/m² | - |
| 1787950778 | 32.22° C | 25% | 1025.2 hPa | 0 mm | - | 687 W/m² | - |
| 1787950473 | 32.22° C | 26% | 1025.1 hPa | 0 mm | - | 673 W/m² | - |
| 1787950170 | 32.22° C | 26% | 1025.2 hPa | 0 mm | - | 681 W/m² | - |
| 1787949866 | 31.67° C | 26% | 1025.5 hPa | 0 mm | - | 677 W/m² | - |
| 1787949566 | 32.22° C | 27% | 1025.6 hPa | 0 mm | - | 702 W/m² | - |
| 1787949261 | 32.22° C | 27% | 1025.6 hPa | 0 mm | - | 714 W/m² | - |
* Rain latest hour (hover to see other rain measurements)
** Current wind speed in m/s (hover to see current wind gust speed)